www.pogodaiklimat.ru

Погода и климат >> Архив погоды >> Австралия >> Северная территория >> Мыс Уэссел


ПОГОДА на Мысе Уэссел

  • Прогноз погоды на Мысе Уэссел
  • Монитор погоды на Мысе Уэссел

АРХИВ ПОГОДЫ на Мысе Уэссел

Время (UTC), дата Ветер
(напр.,м/с)
 
Видим.   Явления Облачность Т
(С)
Тd
(С)
f
(%)
Тe
(С)
Тes
(С)
Комфортность P
(гПа)
Po
(гПа)
Тmin
(С)
Tmax
(С)
R
(мм)
R24
(мм)
S
(см)
08 19.03 З 8 н/о н/о +30.6 +26.3 78 +47 +47 опасность
перегрева
1004.7 1002.5
09 19.03 З 8 н/о н/о +30.0 +26.2 80 +45 +45 опасность
перегрева
1005.7 1003.5
11 19.03 З 10 н/о в посл. час дождь {туман} н/о +26.4 +24.1 87 +37 +37 очень
душно
1006.8 1004.6 4
12 19.03 З 5 н/о н/о +26.6 +24.4 88 +37 +37 очень
душно
1007.8 1005.6
14 19.03 З 5 н/о н/о +28.4 +25.0 82 +41 +41 опасность
перегрева
1008.4 1006.2 +34.6
15 19.03 З 8 н/о н/о +29.7 +27.5 88 +48 +48 опасность
перегрева
1007.5 1005.3
17 19.03 З 9 н/о {туман} н/о +29.3 +27.3 89 +47 +47 опасность
перегрева
1005.0 1002.8 1
18 19.03 З 9 н/о н/о +29.3 +27.1 88 +46 +46 опасность
перегрева
1004.6 1002.4
20 19.03 З 9 н/о н/о +29.6 +27.2 87 +47 +47 опасность
перегрева
1004.6 1002.4
21 19.03 З 10 н/о н/о +29.8 +27.2 86 +47 +47 опасность
перегрева
1005.4 1003.2
23 19.03 З 9 н/о н/о +30.0 +27.6 87 +49 +49 опасность
перегрева
1007.3 1005.1 5
00 20.03 З 10 н/о н/о +30.0 +27.6 87 +49 +49 опасность
перегрева
1007.2 1005.0
02 20.03 З 8 н/о н/о +30.6 +27.2 82 +48 +48 опасность
перегрева
1007.4 1005.2 +25.7
03 20.03 З 10 н/о н/о +31.0 +27.6 82 +50 +50 опасность
перегрева
1006.7 1004.5
05 20.03 З 9 н/о н/о +30.9 +26.6 78 +48 +48 опасность
перегрева
1004.9 1002.7
06 20.03 З 10 н/о н/о +30.6 +26.7 80 +48 +48 опасность
перегрева
1004.4 1002.2
08 20.03 З 9 н/о н/о +30.3 +26.9 82 +47 +47 опасность
перегрева
1005.3 1003.1
09 20.03 З 9 н/о н/о +29.9 +26.5 82 +46 +46 опасность
перегрева
1005.5 1003.3
11 20.03 З 9 н/о н/о +29.9 +26.9 84 +47 +47 опасность
перегрева
1006.8 1004.6
12 20.03 З 10 н/о н/о +29.9 +26.9 84 +47 +47 опасность
перегрева
1007.0 1004.8
14 20.03 З 10 н/о н/о +29.8 +26.8 84 +46 +46 опасность
перегрева
1007.3 1005.1 +31.2
15 20.03 З 12 н/о н/о +29.8 +27.0 85 +47 +47 опасность
перегрева
1006.4 1004.2
17 20.03 З 8 н/о н/о +29.3 +25.1 78 +42 +42 опасность
перегрева
1005.3 1003.1
18 20.03 З 8 н/о н/о +29.3 +26.1 83 +44 +44 опасность
перегрева
1004.7 1002.5
20 20.03 З 10 н/о н/о +29.4 +26.2 83 +45 +45 опасность
перегрева
1004.9 1002.7
21 20.03 З 9 н/о н/о +29.5 +26.3 83 +45 +45 опасность
перегрева
1005.9 1003.7
23 20.03 З 10 н/о н/о +30.4 +27.0 82 +48 +48 опасность
перегрева
1007.2 1005.0
00 21.03 З 10 н/о н/о +30.7 +26.4 78 +47 +47 опасность
перегрева
1007.3 1005.1
02 21.03 З 9 н/о н/о +31.8 +26.8 75 +49 +49 опасность
перегрева
1006.6 1004.4 +28.9
03 21.03 З 9 н/о н/о +32.0 +26.8 74 +49 +49 опасность
перегрева
1005.8 1003.6
05 21.03 З 9 н/о н/о +31.1 +27.2 80 +49 +49 опасность
перегрева
1004.3 1002.1
06 21.03 З 10 н/о н/о +31.7 +27.2 77 +50 +50 опасность
перегрева
1003.6 1001.4
08 21.03 З 10 н/о н/о +30.5 +26.7 80 +47 +47 опасность
перегрева
1002.9 1000.7
09 21.03 З 9 н/о н/о +30.0 +27.4 86 +48 +48 опасность
перегрева
1004.2 1002.0
11 21.03 З 5 н/о в посл. час дождь {туман} н/о +24.1 +23.8 98 +33 +33 очень
душно
1005.6 1003.4 17
12 21.03 СЗ 5 н/о н/о +25.8 +25.3 97 +37 +37 очень
душно
1006.2 1004.0
14 21.03 З 5 н/о н/о +27.2 +25.8 92 +40 +40 очень
душно
1006.6 1004.4 +33.0
15 21.03 СЗ 5 н/о н/о +27.8 +26.2 91 +42 +42 опасность
перегрева
1006.4 1004.2
17 21.03 СЗ 5 н/о н/о +28.4 +26.6 90 +44 +44 опасность
перегрева
1005.3 1003.1
18 21.03 З 9 н/о н/о +28.3 +25.9 87 +42 +42 опасность
перегрева
1004.4 1002.2
23 21.03 З 11 н/о в посл. час дождь {туман} н/о +29.3 +25.7 81 +43 +43 опасность
перегрева
1005.6 1003.4 17
02 22.03 З 9 н/о н/о +31.0 +25.4 72 +45 +45 опасность
перегрева
1005.0 1002.8 +22.5
03 22.03 З 10 н/о н/о +30.7 +25.8 75 +46 +46 опасность
перегрева
1004.8 1002.6
05 22.03 З 10 н/о н/о +31.4 +25.5 71 +46 +46 опасность
перегрева
1003.5 1001.3
06 22.03 З 10 н/о н/о +31.2 +26.2 75 +47 +47 опасность
перегрева
1002.9 1000.7
08 22.03 З 10 н/о н/о +29.8 +25.3 77 +44 +44 опасность
перегрева
1003.2 1001.0
09 22.03 СЗ 10 н/о н/о +29.3 +25.7 81 +43 +43 опасность
перегрева
1003.7 1001.5
11 22.03 СЗ 10 н/о н/о +29.4 +26.6 85 +45 +45 опасность
перегрева
1004.6 1002.4
12 22.03 СЗ 11 н/о н/о +29.3 +26.1 83 +44 +44 опасность
перегрева
1005.0 1002.8
14 22.03 СЗ 13 н/о н/о +29.1 +25.7 82 +43 +43 опасность
перегрева
1004.9 1002.7 +31.8
15 22.03 СЗ 14 н/о н/о +29.4 +25.8 81 +44 +44 опасность
перегрева
1004.6 1002.4
17 22.03 СЗ 12 н/о н/о +29.4 +26.0 82 +44 +44 опасность
перегрева
1003.9 1001.7
18 22.03 СЗ 11 н/о н/о +29.5 +26.1 82 +45 +45 опасность
перегрева
1004.1 1001.9
20 22.03 СЗ 11 н/о н/о +29.5 +25.3 78 +43 +43 опасность
перегрева
1004.9 1002.7
21 22.03 З 9 н/о н/о +29.6 +25.4 78 +43 +43 опасность
перегрева
1006.3 1004.1
23 22.03 ЮВ 7 н/о в посл. час дождь {туман} н/о +25.2 +24.7 97 +35 +35 очень
душно
1006.9 1004.7 8
00 23.03 С 3 н/о н/о +25.9 +25.0 95 +37 +37 очень
душно
1007.5 1005.3
02 23.03 СЗ 10 н/о {туман} н/о +29.7 +26.5 83 +46 +46 опасность
перегрева
1007.0 1004.8 +23.7
03 23.03 СЗ 12 н/о н/о +27.6 +24.6 84 +39 +39 очень
душно
1006.1 1003.9
05 23.03 СЗ 11 н/о {туман} н/о +30.1 +27.1 84 +48 +48 опасность
перегрева
1004.6 1002.4 4
06 23.03 СЗ 12 н/о н/о +30.2 +26.6 81 +47 +47 опасность
перегрева
1004.3 1002.1
08 23.03 СЗ 10 н/о н/о +30.0 +26.8 83 +47 +47 опасность
перегрева
1004.4 1002.2
09 23.03 СЗ 10 н/о н/о +28.9 +25.3 81 +42 +42 опасность
перегрева
1005.4 1003.2
11 23.03 СЗ 10 н/о н/о +29.1 +25.9 83 +44 +44 опасность
перегрева
1006.3 1004.1
12 23.03 СЗ 10 н/о н/о +29.2 +25.8 82 +44 +44 опасность
перегрева
1006.4 1004.2
14 23.03 СЗ 10 н/о н/о +28.4 +25.4 84 +42 +42 опасность
перегрева
1007.6 1005.4 +31.2
15 23.03 СЗ 11 н/о н/о +29.0 +24.8 78 +41 +41 опасность
перегрева
1007.5 1005.3
17 23.03 СЗ 10 н/о н/о +29.0 +25.4 81 +43 +43 опасность
перегрева
1006.4 1004.2
18 23.03 СЗ 9 н/о н/о +29.1 +25.5 81 +43 +43 опасность
перегрева
1006.4 1004.2
20 23.03 СЗ 7 н/о н/о +28.6 +24.8 80 +41 +41 опасность
перегрева
1006.9 1004.7
21 23.03 З 11 н/о н/о +27.7 +24.7 84 +39 +39 очень
душно
1008.4 1006.2
23 23.03 СЗ 6 н/о {туман} н/о +30.1 +26.1 79 +45 +45 опасность
перегрева
1009.3 1007.1 4
00 24.03 З 10 н/о н/о +27.9 +24.3 81 +39 +39 очень
душно
1010.1 1007.9
02 24.03 З 6 н/о {туман} н/о +27.6 +25.0 86 +40 +40 очень
душно
1009.6 1007.4 +25.5
03 24.03 СЗ 7 н/о н/о +29.0 +26.0 84 +44 +44 опасность
перегрева
1009.1 1006.9
05 24.03 СЗ 8 н/о в посл. час дождь {туман} н/о +26.5 +25.1 92 +38 +38 очень
душно
1007.8 1005.6 11
06 24.03 З 7 н/о н/о +28.1 +24.5 81 +40 +40 очень
душно
1007.0 1004.8
08 24.03 СЗ 6 н/о н/о +28.5 +24.5 79 +40 +40 очень
душно
1007.3 1005.1
09 24.03 С 6 н/о н/о +27.9 +24.9 84 +40 +40 очень
душно
1007.8 1005.6
11 24.03 СЗ 6 н/о н/о +28.1 +25.3 85 +41 +41 опасность
перегрева
1009.1 1006.9
12 24.03 СЗ 7 н/о н/о +28.5 +25.1 82 +41 +41 опасность
перегрева
1009.6 1007.4
14 24.03 СЗ 6 н/о н/о +28.5 +25.3 83 +42 +42 опасность
перегрева
1010.2 1008.0 +31.3
15 24.03 СЗ 6 н/о н/о +28.3 +24.7 81 +40 +40 очень
душно
1010.1 1007.9
17 24.03 СЗ 7 н/о н/о +28.5 +25.3 83 +42 +42 опасность
перегрева
1009.0 1006.8
18 24.03 СЗ 7 н/о н/о +28.6 +25.2 82 +42 +42 опасность
перегрева
1009.0 1006.8
20 24.03 СЗ 7 н/о н/о +28.3 +24.9 82 +41 +41 опасность
перегрева
1008.9 1006.7
21 24.03 СЗ 6 н/о н/о +28.2 +24.8 82 +40 +40 очень
душно
1009.6 1007.4
23 24.03 СЗ 8 н/о н/о +29.3 +24.8 77 +42 +42 опасность
перегрева
1011.2 1009.0 11
00 25.03 СЗ 7 н/о н/о +31.5 +25.6 71 +46 +46 опасность
перегрева
1011.3 1009.1
02 25.03 СЗ 7 н/о н/о +32.3 +25.9 69 +48 +48 опасность
перегрева
1010.9 1008.7 +25.7
03 25.03 СЗ 6 н/о н/о +33.1 +25.6 65 +48 +48 опасность
перегрева
1010.0 1007.8
05 25.03 З 6 н/о н/о +29.9 +24.8 74 +43 +43 опасность
перегрева
1008.8 1006.6
06 25.03 З 5 н/о н/о +32.2 +25.5 68 +47 +47 опасность
перегрева
1008.1 1005.9
08 25.03 СЗ 5 н/о н/о +30.5 +25.1 73 +44 +44 опасность
перегрева
1008.2 1006.0
09 25.03 СЗ 5 н/о н/о +28.7 +24.5 78 +41 +41 опасность
перегрева
1008.4 1006.2
11 25.03 СЗ 5 н/о н/о +28.3 +24.7 81 +40 +40 очень
душно
1009.8 1007.6
12 25.03 С 4 н/о н/о +28.2 +25.0 83 +41 +41 опасность
перегрева
1010.3 1008.1
14 25.03 СЗ 6 н/о н/о +28.5 +25.3 83 +42 +42 опасность
перегрева
1011.4 1009.2 +33.8
15 25.03 СЗ 5 н/о н/о +28.5 +25.5 84 +42 +42 опасность
перегрева
1010.9 1008.7
17 25.03 СЗ 6 н/о н/о +28.4 +25.0 82 +41 +41 опасность
перегрева
1009.6 1007.4
18 25.03 СЗ 6 н/о н/о +28.5 +25.1 82 +41 +41 опасность
перегрева
1009.6 1007.4
20 25.03 СЗ 5 н/о н/о +28.3 +25.1 83 +41 +41 опасность
перегрева
1009.9 1007.7
21 25.03 СЗ 6 н/о н/о +28.4 +25.0 82 +41 +41 опасность
перегрева
1010.3 1008.1
23 25.03 СЗ 5 н/о н/о +31.0 +25.8 74 +46 +46 опасность
перегрева
1011.5 1009.3
00 26.03 СЗ 6 н/о н/о +32.2 +26.3 71 +48 +48 опасность
перегрева
1011.5 1009.3
02 26.03 СЗ 5 н/о н/о +33.4 +27.2 70 +52 +52 опасность
перегрева
1011.2 1009.0 +28.1
03 26.03 СЗ 6 н/о н/о +33.6 +26.4 66 +50 +50 опасность
перегрева
1010.3 1008.1
05 26.03 С 6 н/о н/о +32.7 +26.0 68 +48 +48 опасность
перегрева
1008.2 1006.0

 

Местоположение метеостанции Мыс Уэссел (Северная территория, Австралия): широта -11.01 долгота 136.75 высота над уровнем моря 19 м.

В архиве по умолчанию представлена погода на Мысе Уэссел за последнюю неделю. Архивные данные за месяц целиком и за предыдущие месяцы, начиная с января 2011 года, Вы можете получить, выбрав интересующий диапазон дат из раскрывающегося списка и нажав кнопку "Ввод!".


*Определитесь, кто Вы:
робот инопланетянин человек

Внимание! Время в таблицах - всемирное. Для получения местного времени необходимо прибавить поправку, которая равна 9.5 ч.

Смотрите также архив погоды в соседних городах и на ближайших метеорологических станциях:

Погода в Аэропорту Гоув (Северная территория, Австралия) (141 км)
Погода в Галивинку (Северная территория, Австралия) (169 км)
Погода в Милинджимби (Северная территория, Австралия) (236 км)
Погода на Острове Северо-восточный (Северная территория, Австралия) (294 км)
Погода в Манингриде (Северная территория, Австралия) (298 км)
Погода в Аэропорту Грут-Айленд (Северная территория, Австралия) (332 км)
Погода в Уорруви (Северная территория, Австралия) (374 км)
Погода в Булман Уимол (Северная территория, Австралия) (396 км)
Погода на Острове Маклер (Северная территория, Австралия) (412 км)
Погода в Джаберу (Северная территория, Австралия) (458 км)

Пояснения к столбцам:

Ветер - указаны скорость ветра в м/с - средняя за 10 мин, порывы в срок и между сроками (в фигурных скобках) и направление, откуда дует ветер: С - северный, СВ - северо-восточный, В - восточный, ЮВ - юго-восточный, Ю - южный, ЮЗ - юго-западный, З - западный, СЗ - северо-западный.
Видимость - горизонтальная дальность видимости в метрах или километрах. При видимости от 1 до 10 км при отсутствии осадков обычно наблюдается дымка, при ухудшении видимости до 1 км и менее - туман. В сухую погоду видимость может ухудшаться дымом, пылью или мглою.
Явления - указаны атмосферные явления, наблюдавшиеся в срок или в последний час перед сроком; фигурными скобками обозначены явления, наблюдавшиеся между сроками (за 1-3 часа до срока); квадратными скобками обозначены град или гололедные отложения с указанием их диаметра в мм.
Облачность - указаны через наклонную черту общая и нижняя облачность в баллах и высота нижней границы облаков в метрах; квадратными скобками обозначены формы облаков: Ci - перистые, Cs - перисто-слоистые, Cc - перисто-кучевые, Ac - высококучевые, As - высокослоистые, Sc - слоисто-кучевые, Ns - слоисто-дождевые, Cu - кучевые, Cb - кучево-дождевые. Подробнее классификацию облаков см. в Атласе облаков (PDF).
T - Температура воздуха - температура, измеренная на высоте 2 м над землей.
Td - Температура точки росы - температура, при понижении до которой содержащийся в воздухе водяной пар достигнет насыщения.
f - Относительная влажность воздуха - влажноcть воздуха, измеренная на высоте 2 м над землей.
Te - Эффективная температура - температура, которую ощущает одетый по сезону человек в тени. Характеристика душности погоды. При расчете учитывается влияние влажности воздуха и скорости ветра на теплоощущения человека.
Tes - Эффективная температура на солнце - температура, которую ощущает человек, с поправкой на солнечный нагрев. Характеристика знойности погоды. Зависит от высоты солнца над горизонтом, облачности и скорости ветра. Ночью, в пасмурную погоду, а также при ветре 12 м/с и более поправка равна нулю.
P - Атмосферное давление - приведенное к уровню моря атмосферное давление.
Po - Атмосферное давление - измеренное на уровне метеостанции атмосферное давление.
Tmin - Минимальная температура - минимум температуры воздуха на высоте 2 м над землей.
Tmax - Максимальная температура - максимум температуры воздуха на высоте 2 м над землей.
R - Количество осадков - Количество выпавших осадков за период времени, мм. При наведении курсора мыши на число - период времени, за который выпало указанное количество осадков.
R24 - Количество осадков - Количество выпавших осадков за 24 часа, мм.
S - Снежный покров - Высота снежного покрова, см. При наведении курсора мыши на число - состояние снежного покрова и степень покрытия местности в баллах.